Year,Month,Day,Hour,Minute,Value (Times are PST for windspeed in km/hr)
2020,10,13,00,00,0.30
2020,10,13,00,01,0.50
2020,10,13,00,02,0.60
2020,10,13,00,03,2.00
2020,10,13,00,04,3.50
2020,10,13,00,05,0.50
2020,10,13,00,06,0.30
2020,10,13,00,07,1.10
2020,10,13,00,08,0.00
2020,10,13,00,09,0.20
2020,10,13,00,10,2.90
2020,10,13,00,11,1.90
2020,10,13,00,12,0.00
2020,10,13,00,13,0.00
2020,10,13,00,14,0.00
2020,10,13,00,15,0.00
2020,10,13,00,16,0.00
2020,10,13,00,17,0.00
2020,10,13,00,18,0.00
2020,10,13,00,19,0.00
2020,10,13,00,20,0.00
2020,10,13,00,21,0.00
2020,10,13,00,22,0.00
2020,10,13,00,23,0.00
2020,10,13,00,24,0.00
2020,10,13,00,25,0.00
2020,10,13,00,26,0.00
2020,10,13,00,27,0.00
2020,10,13,00,28,0.00
2020,10,13,00,29,0.80
2020,10,13,00,30,1.90
2020,10,13,00,31,0.10
2020,10,13,00,32,0.00
2020,10,13,00,33,0.00
2020,10,13,00,34,0.00
2020,10,13,00,35,0.00
2020,10,13,00,36,1.00
2020,10,13,00,37,0.00
2020,10,13,00,38,0.00
2020,10,13,00,39,0.70
2020,10,13,00,40,0.00
2020,10,13,00,41,0.00
2020,10,13,00,42,0.60
2020,10,13,00,43,3.50
2020,10,13,00,44,1.70
2020,10,13,00,45,1.40
2020,10,13,00,46,0.80
2020,10,13,00,47,1.90
2020,10,13,00,48,1.40
2020,10,13,00,49,1.90
2020,10,13,00,50,1.40
2020,10,13,00,51,1.20
2020,10,13,00,52,2.20
2020,10,13,00,53,1.60
2020,10,13,00,54,0.10
2020,10,13,00,55,0.00
2020,10,13,00,56,0.00
2020,10,13,00,57,0.00
2020,10,13,00,58,0.00
2020,10,13,00,59,0.00
2020,10,13,01,00,0.00
2020,10,13,01,01,0.00
2020,10,13,01,02,0.00
2020,10,13,01,03,0.00
2020,10,13,01,04,0.00
2020,10,13,01,05,0.00
2020,10,13,01,06,1.40
2020,10,13,01,07,0.00
2020,10,13,01,08,0.00
2020,10,13,01,09,0.00
2020,10,13,01,10,0.10
2020,10,13,01,11,2.90
2020,10,13,01,12,0.10
2020,10,13,01,13,2.10
2020,10,13,01,14,1.70
2020,10,13,01,15,0.10
2020,10,13,01,16,2.40
2020,10,13,01,17,0.20
2020,10,13,01,18,0.00
2020,10,13,01,19,0.60
2020,10,13,01,20,0.40
2020,10,13,01,21,1.10
2020,10,13,01,22,0.30
2020,10,13,01,23,0.00
2020,10,13,01,24,0.00
2020,10,13,01,25,0.00
2020,10,13,01,26,0.00
2020,10,13,01,27,0.30
2020,10,13,01,28,0.00
2020,10,13,01,29,0.00
2020,10,13,01,30,0.00
2020,10,13,01,31,0.00
2020,10,13,01,32,0.10
2020,10,13,01,33,0.70
2020,10,13,01,34,0.80
2020,10,13,01,35,1.00
2020,10,13,01,36,1.40
2020,10,13,01,37,0.10
2020,10,13,01,38,0.40
2020,10,13,01,39,1.80
2020,10,13,01,40,0.60
2020,10,13,01,41,0.00
2020,10,13,01,42,0.00
2020,10,13,01,43,0.00
2020,10,13,01,44,0.00
2020,10,13,01,45,0.40
2020,10,13,01,46,3.30
2020,10,13,01,47,0.30
2020,10,13,01,48,0.30
2020,10,13,01,49,0.00
2020,10,13,01,50,5.40
2020,10,13,01,51,2.70
2020,10,13,01,52,5.50
2020,10,13,01,53,0.50
2020,10,13,01,54,3.70
2020,10,13,01,55,2.60
2020,10,13,01,56,2.00
2020,10,13,01,57,1.40
2020,10,13,01,58,1.60
2020,10,13,01,59,3.50
2020,10,13,02,00,1.60
2020,10,13,02,01,0.00
2020,10,13,02,02,0.50
2020,10,13,02,03,3.80
2020,10,13,02,04,3.30
2020,10,13,02,05,1.70
2020,10,13,02,06,4.60
2020,10,13,02,07,2.80
2020,10,13,02,08,0.80
2020,10,13,02,09,0.00
2020,10,13,02,10,0.50
2020,10,13,02,11,1.30
2020,10,13,02,12,1.40
2020,10,13,02,13,5.00
2020,10,13,02,14,1.60
2020,10,13,02,15,0.80
2020,10,13,02,16,1.50
2020,10,13,02,17,2.60
2020,10,13,02,18,0.70
2020,10,13,02,19,2.40
2020,10,13,02,20,0.80
2020,10,13,02,21,6.40
2020,10,13,02,22,3.40
2020,10,13,02,23,3.50
2020,10,13,02,24,8.60
2020,10,13,02,25,3.20
2020,10,13,02,26,0.00
2020,10,13,02,27,0.20
2020,10,13,02,28,4.50
2020,10,13,02,29,4.90
2020,10,13,02,30,5.20
2020,10,13,02,31,3.60
2020,10,13,02,32,2.00
2020,10,13,02,33,5.60
2020,10,13,02,34,11.10
2020,10,13,02,35,4.90
2020,10,13,02,36,2.40
2020,10,13,02,37,5.50
2020,10,13,02,38,4.70
2020,10,13,02,39,6.20
2020,10,13,02,40,2.90
2020,10,13,02,41,7.50
2020,10,13,02,42,3.80
2020,10,13,02,43,9.40
2020,10,13,02,44,5.20
2020,10,13,02,45,2.30
2020,10,13,02,46,4.10
2020,10,13,02,47,6.40
2020,10,13,02,48,10.10
2020,10,13,02,49,6.40
2020,10,13,02,50,8.20
2020,10,13,02,51,7.40
2020,10,13,02,52,8.10
2020,10,13,02,53,6.10
2020,10,13,02,54,4.20
2020,10,13,02,55,2.70
2020,10,13,02,56,5.80
2020,10,13,02,57,5.50
2020,10,13,02,58,7.20
2020,10,13,02,59,4.30
2020,10,13,03,00,4.00
2020,10,13,03,01,6.00
2020,10,13,03,02,5.90
2020,10,13,03,03,4.50
2020,10,13,03,04,3.10
2020,10,13,03,05,3.10
2020,10,13,03,06,2.50
2020,10,13,03,07,3.30
2020,10,13,03,08,4.70
2020,10,13,03,09,1.90
2020,10,13,03,10,3.50
2020,10,13,03,11,11.40
2020,10,13,03,12,3.70
2020,10,13,03,13,3.30
2020,10,13,03,14,4.70
2020,10,13,03,15,6.50
2020,10,13,03,16,4.10
2020,10,13,03,17,8.70
2020,10,13,03,18,5.20
2020,10,13,03,19,8.00
2020,10,13,03,20,4.70
2020,10,13,03,21,6.30
2020,10,13,03,22,5.30
2020,10,13,03,23,11.70
2020,10,13,03,24,7.60
2020,10,13,03,25,5.20
2020,10,13,03,26,5.30
2020,10,13,03,27,9.30
2020,10,13,03,28,4.10
2020,10,13,03,29,5.20
2020,10,13,03,30,4.60
2020,10,13,03,31,6.70
2020,10,13,03,32,7.20
2020,10,13,03,33,6.50
2020,10,13,03,34,2.20
2020,10,13,03,35,9.40
2020,10,13,03,36,6.10
2020,10,13,03,37,3.30
2020,10,13,03,38,3.70
2020,10,13,03,39,4.30
2020,10,13,03,40,4.70
2020,10,13,03,41,5.00
2020,10,13,03,42,9.40
2020,10,13,03,43,2.70
2020,10,13,03,44,6.70
2020,10,13,03,45,5.40
2020,10,13,03,46,4.50
2020,10,13,03,47,6.30
2020,10,13,03,48,11.30
2020,10,13,03,49,15.60
2020,10,13,03,50,9.40
2020,10,13,03,51,8.60
2020,10,13,03,52,0.80
2020,10,13,03,53,1.20
2020,10,13,03,54,1.40
2020,10,13,03,55,5.40
2020,10,13,03,56,5.80
2020,10,13,03,57,6.70
2020,10,13,03,58,9.20
2020,10,13,03,59,11.90
2020,10,13,04,00,5.30
2020,10,13,04,01,8.30
2020,10,13,04,02,10.10
2020,10,13,04,03,3.60
2020,10,13,04,04,8.80
2020,10,13,04,05,8.80
2020,10,13,04,06,4.10
2020,10,13,04,07,8.90
2020,10,13,04,08,9.10
2020,10,13,04,09,5.30
2020,10,13,04,10,4.90
2020,10,13,04,11,2.20
2020,10,13,04,12,9.10
2020,10,13,04,13,6.20
2020,10,13,04,14,2.90
2020,10,13,04,15,8.10
2020,10,13,04,16,5.50
2020,10,13,04,17,11.60
2020,10,13,04,18,6.60
2020,10,13,04,19,1.10
2020,10,13,04,20,1.40
2020,10,13,04,21,4.80
2020,10,13,04,22,4.70
2020,10,13,04,23,3.60
2020,10,13,04,24,10.10
2020,10,13,04,25,4.10
2020,10,13,04,26,5.00
2020,10,13,04,27,7.10
2020,10,13,04,28,9.60
2020,10,13,04,29,4.60
2020,10,13,04,30,1.10
2020,10,13,04,31,4.20
2020,10,13,04,32,0.60
2020,10,13,04,33,2.60
2020,10,13,04,34,0.50
2020,10,13,04,35,3.40
2020,10,13,04,36,3.20
2020,10,13,04,37,5.40
2020,10,13,04,38,5.50
2020,10,13,04,39,4.60
2020,10,13,04,40,2.50
2020,10,13,04,41,3.90
2020,10,13,04,42,0.20
2020,10,13,04,43,3.60
2020,10,13,04,44,5.10
2020,10,13,04,45,2.60
2020,10,13,04,46,6.40
2020,10,13,04,47,8.60
2020,10,13,04,48,5.90
2020,10,13,04,49,8.00
2020,10,13,04,50,8.30
2020,10,13,04,51,4.30
2020,10,13,04,52,4.80
2020,10,13,04,53,6.40
2020,10,13,04,54,8.90
2020,10,13,04,55,4.10
2020,10,13,04,56,8.10
2020,10,13,04,57,7.70
2020,10,13,04,58,6.90
2020,10,13,04,59,0.40
2020,10,13,05,00,5.80
2020,10,13,05,01,3.90
2020,10,13,05,02,1.70
2020,10,13,05,03,2.40
2020,10,13,05,04,3.10
2020,10,13,05,05,7.40
2020,10,13,05,06,4.70
2020,10,13,05,07,8.50
2020,10,13,05,08,2.60
2020,10,13,05,09,7.00
2020,10,13,05,10,7.60
2020,10,13,05,11,5.50
2020,10,13,05,12,1.50
2020,10,13,05,13,0.60
2020,10,13,05,14,3.00
2020,10,13,05,15,0.10
2020,10,13,05,16,5.60
2020,10,13,05,17,9.80
2020,10,13,05,18,6.80
2020,10,13,05,19,7.10
2020,10,13,05,20,4.00
2020,10,13,05,21,4.20
2020,10,13,05,22,7.60
2020,10,13,05,23,3.50
2020,10,13,05,24,6.30
2020,10,13,05,25,5.80
2020,10,13,05,26,5.90
2020,10,13,05,27,4.30
2020,10,13,05,28,2.60
2020,10,13,05,29,0.30
2020,10,13,05,30,5.30
2020,10,13,05,31,3.50
2020,10,13,05,32,2.90
2020,10,13,05,33,4.40
2020,10,13,05,34,2.80
2020,10,13,05,35,2.70
2020,10,13,05,36,4.40
2020,10,13,05,37,5.50
2020,10,13,05,38,4.80
2020,10,13,05,39,3.00
2020,10,13,05,40,0.90
2020,10,13,05,41,0.50
2020,10,13,05,42,3.20
2020,10,13,05,43,3.50
2020,10,13,05,44,3.40
2020,10,13,05,45,1.10
2020,10,13,05,46,2.00
2020,10,13,05,47,3.30
2020,10,13,05,48,5.20
2020,10,13,05,49,2.50
2020,10,13,05,50,0.60
2020,10,13,05,51,1.10
2020,10,13,05,52,0.40
2020,10,13,05,53,0.30
2020,10,13,05,54,0.30
2020,10,13,05,55,0.20
2020,10,13,05,56,3.40
2020,10,13,05,57,1.80
2020,10,13,05,58,1.30
2020,10,13,05,59,1.40
2020,10,13,06,00,4.70
2020,10,13,06,01,0.80
2020,10,13,06,02,0.50
2020,10,13,06,03,0.90
2020,10,13,06,04,0.00
2020,10,13,06,05,0.00
2020,10,13,06,06,0.00
2020,10,13,06,07,0.00
2020,10,13,06,08,0.00
2020,10,13,06,09,1.90
2020,10,13,06,10,0.60
2020,10,13,06,11,2.10
2020,10,13,06,12,3.10
2020,10,13,06,13,0.50
2020,10,13,06,14,0.00
2020,10,13,06,15,0.00
2020,10,13,06,16,0.00
2020,10,13,06,17,4.80
2020,10,13,06,18,1.70
2020,10,13,06,19,3.10
2020,10,13,06,20,2.10
2020,10,13,06,21,1.70
2020,10,13,06,22,1.40
2020,10,13,06,23,0.00
2020,10,13,06,24,0.10
2020,10,13,06,25,1.30
2020,10,13,06,26,0.20
2020,10,13,06,27,0.80
2020,10,13,06,28,0.00
2020,10,13,06,29,0.00
2020,10,13,06,30,0.00
2020,10,13,06,31,0.00
2020,10,13,06,32,0.00
2020,10,13,06,33,0.00
2020,10,13,06,34,0.00
2020,10,13,06,35,0.20
2020,10,13,06,36,0.80
2020,10,13,06,37,0.00
2020,10,13,06,38,0.00
2020,10,13,06,39,0.00
2020,10,13,06,40,0.00
2020,10,13,06,41,0.00
2020,10,13,06,42,0.30
2020,10,13,06,43,0.00
2020,10,13,06,44,0.00
2020,10,13,06,45,0.00
2020,10,13,06,46,0.00
2020,10,13,06,47,0.00
2020,10,13,06,48,0.30
2020,10,13,06,49,1.10
2020,10,13,06,50,0.00
2020,10,13,06,51,0.00
2020,10,13,06,52,0.00
2020,10,13,06,53,0.00
2020,10,13,06,54,0.00
2020,10,13,06,55,0.70
2020,10,13,06,56,2.00
2020,10,13,06,57,0.60
2020,10,13,06,58,0.10
2020,10,13,06,59,0.30
2020,10,13,07,00,0.80
2020,10,13,07,01,0.00
2020,10,13,07,02,0.10
2020,10,13,07,03,0.00
2020,10,13,07,04,0.00
2020,10,13,07,05,0.00
2020,10,13,07,06,0.00
2020,10,13,07,07,0.00
2020,10,13,07,08,0.00
2020,10,13,07,09,0.00
2020,10,13,07,10,0.00
2020,10,13,07,11,0.00
2020,10,13,07,12,0.00
2020,10,13,07,13,0.00
2020,10,13,07,14,0.00
2020,10,13,07,15,0.00
2020,10,13,07,16,0.00
2020,10,13,07,17,0.00
2020,10,13,07,18,0.00
2020,10,13,07,19,0.00
2020,10,13,07,20,0.10
2020,10,13,07,21,0.60
2020,10,13,07,22,0.30
2020,10,13,07,23,1.20
2020,10,13,07,24,1.90
2020,10,13,07,25,0.30
2020,10,13,07,26,0.00
2020,10,13,07,27,0.00
2020,10,13,07,28,0.00
2020,10,13,07,29,0.00
2020,10,13,07,30,0.00
2020,10,13,07,31,0.00
2020,10,13,07,32,0.00
2020,10,13,07,33,0.00
2020,10,13,07,34,0.00
2020,10,13,07,35,0.00
2020,10,13,07,36,0.00
2020,10,13,07,37,0.00
2020,10,13,07,38,0.00
2020,10,13,07,39,0.00
2020,10,13,07,40,0.00
2020,10,13,07,41,0.00
2020,10,13,07,42,0.00
2020,10,13,07,43,0.00
2020,10,13,07,44,1.00
2020,10,13,07,45,3.10
2020,10,13,07,46,0.90
2020,10,13,07,47,0.10
2020,10,13,07,48,0.00
2020,10,13,07,49,1.70
2020,10,13,07,50,0.00
2020,10,13,07,51,0.00
2020,10,13,07,52,0.00
2020,10,13,07,53,0.80
2020,10,13,07,54,0.30
2020,10,13,07,55,3.80
2020,10,13,07,56,0.30
2020,10,13,07,57,2.80
2020,10,13,07,58,0.90
2020,10,13,07,59,1.90
2020,10,13,08,00,0.00
2020,10,13,08,01,0.00
2020,10,13,08,02,0.00
2020,10,13,08,03,3.00
2020,10,13,08,04,3.90
2020,10,13,08,05,0.00
2020,10,13,08,06,0.10
2020,10,13,08,07,1.10
2020,10,13,08,08,2.00
2020,10,13,08,09,5.00
2020,10,13,08,10,5.10
2020,10,13,08,11,5.30
2020,10,13,08,12,0.10
2020,10,13,08,13,0.00
2020,10,13,08,14,6.30
2020,10,13,08,15,5.80
2020,10,13,08,16,2.80
2020,10,13,08,17,7.80
2020,10,13,08,18,5.70
2020,10,13,08,19,5.60
2020,10,13,08,20,3.20
2020,10,13,08,21,18.40
2020,10,13,08,22,8.70
2020,10,13,08,23,8.90
2020,10,13,08,24,13.40
2020,10,13,08,25,13.60
2020,10,13,08,26,16.30
2020,10,13,08,27,8.00
2020,10,13,08,28,12.70
2020,10,13,08,29,15.10
2020,10,13,08,30,11.60
2020,10,13,08,31,22.70
2020,10,13,08,32,10.20
2020,10,13,08,33,14.70
2020,10,13,08,34,15.40
2020,10,13,08,35,15.80
2020,10,13,08,36,19.20
2020,10,13,08,37,22.20
2020,10,13,08,38,21.70
2020,10,13,08,39,14.80
2020,10,13,08,40,13.50
2020,10,13,08,41,20.80
2020,10,13,08,42,24.30
2020,10,13,08,43,16.50
2020,10,13,08,44,6.80
2020,10,13,08,45,16.70
2020,10,13,08,46,24.60
2020,10,13,08,47,14.30
2020,10,13,08,48,10.80
2020,10,13,08,49,4.30
2020,10,13,08,50,7.50
2020,10,13,08,51,25.90
2020,10,13,08,52,12.40
2020,10,13,08,53,10.90
2020,10,13,08,54,16.10
2020,10,13,08,55,11.30
2020,10,13,08,56,12.10
2020,10,13,08,57,12.80
2020,10,13,08,58,11.50
2020,10,13,08,59,11.30
2020,10,13,09,00,7.60
2020,10,13,09,01,9.90
2020,10,13,09,02,8.90
2020,10,13,09,03,13.40
2020,10,13,09,04,3.40
2020,10,13,09,05,6.20
2020,10,13,09,06,7.20
2020,10,13,09,07,7.80
2020,10,13,09,08,6.60
2020,10,13,09,09,10.40
2020,10,13,09,10,14.80
2020,10,13,09,11,15.80
2020,10,13,09,12,9.70
2020,10,13,09,13,9.50
2020,10,13,09,14,12.90
2020,10,13,09,15,12.90
2020,10,13,09,16,9.20
2020,10,13,09,17,18.30
2020,10,13,09,18,21.40
2020,10,13,09,19,21.70
2020,10,13,09,20,12.70
2020,10,13,09,21,11.90
2020,10,13,09,22,12.60
2020,10,13,09,23,18.50
2020,10,13,09,24,15.80
2020,10,13,09,25,13.00
2020,10,13,09,26,14.20
2020,10,13,09,27,8.10
2020,10,13,09,28,7.90
2020,10,13,09,29,8.30
2020,10,13,09,30,13.90
2020,10,13,09,31,12.70
2020,10,13,09,32,15.90
2020,10,13,09,33,18.20
2020,10,13,09,34,10.80
2020,10,13,09,35,11.60
2020,10,13,09,36,6.70
2020,10,13,09,37,5.00
2020,10,13,09,38,8.30
2020,10,13,09,39,7.10
2020,10,13,09,40,9.20
2020,10,13,09,41,19.70
2020,10,13,09,42,15.30
2020,10,13,09,43,5.10
2020,10,13,09,44,12.50
2020,10,13,09,45,15.70
2020,10,13,09,46,15.10
2020,10,13,09,47,14.10
2020,10,13,09,48,19.20
2020,10,13,09,49,15.80
2020,10,13,09,50,17.90
2020,10,13,09,51,16.90
2020,10,13,09,52,9.80
2020,10,13,09,53,11.40
2020,10,13,09,54,18.60
2020,10,13,09,55,15.70
2020,10,13,09,56,10.80
2020,10,13,09,57,5.70
2020,10,13,09,58,21.60
2020,10,13,09,59,9.20
2020,10,13,10,00,13.30
2020,10,13,10,01,6.70
2020,10,13,10,02,6.30
2020,10,13,10,03,12.60
2020,10,13,10,04,15.20
2020,10,13,10,05,13.60
2020,10,13,10,06,14.50
2020,10,13,10,07,13.80
2020,10,13,10,08,11.10
2020,10,13,10,09,19.50
2020,10,13,10,10,12.40
2020,10,13,10,11,14.20
2020,10,13,10,12,4.20
2020,10,13,10,13,13.00
2020,10,13,10,14,13.00
2020,10,13,10,15,11.20
2020,10,13,10,16,6.50
2020,10,13,10,17,2.70
2020,10,13,10,18,14.10
2020,10,13,10,19,16.20
2020,10,13,10,20,15.00
2020,10,13,10,21,16.80
2020,10,13,10,22,13.60
2020,10,13,10,23,11.50
2020,10,13,10,24,14.80
2020,10,13,10,25,15.60
2020,10,13,10,26,12.50
2020,10,13,10,27,9.90
2020,10,13,10,28,14.10
2020,10,13,10,29,13.10
2020,10,13,10,30,3.80
2020,10,13,10,31,14.20
2020,10,13,10,32,12.40
2020,10,13,10,33,7.00
2020,10,13,10,34,8.60
2020,10,13,10,35,21.30
2020,10,13,10,36,9.90
2020,10,13,10,37,6.40
2020,10,13,10,38,4.40
2020,10,13,10,39,5.90
2020,10,13,10,40,14.80
2020,10,13,10,41,8.00
2020,10,13,10,42,8.50
2020,10,13,10,43,10.90
2020,10,13,10,44,14.90
2020,10,13,10,45,11.90
2020,10,13,10,46,12.10
2020,10,13,10,47,26.50
2020,10,13,10,48,21.60
2020,10,13,10,49,23.50
2020,10,13,10,50,19.70
2020,10,13,10,51,17.20
2020,10,13,10,52,15.80
2020,10,13,10,53,14.50
2020,10,13,10,54,22.40
2020,10,13,10,55,11.00
2020,10,13,10,56,17.10
2020,10,13,10,57,16.10
2020,10,13,10,58,9.90
2020,10,13,10,59,23.00
2020,10,13,11,00,20.50
2020,10,13,11,01,26.80
2020,10,13,11,02,14.00
2020,10,13,11,03,31.30
2020,10,13,11,04,19.30
2020,10,13,11,05,18.30
2020,10,13,11,06,10.70
2020,10,13,11,07,16.30
2020,10,13,11,08,7.70
2020,10,13,11,09,11.70
2020,10,13,11,10,5.80
2020,10,13,11,11,9.60
2020,10,13,11,12,9.10
2020,10,13,11,13,6.60
2020,10,13,11,14,16.90
2020,10,13,11,15,16.70
2020,10,13,11,16,9.10
2020,10,13,11,17,12.00
2020,10,13,11,18,10.60
2020,10,13,11,19,16.30
2020,10,13,11,20,15.40
2020,10,13,11,21,6.80
2020,10,13,11,22,15.20
2020,10,13,11,23,24.60
2020,10,13,11,24,19.90
2020,10,13,11,25,22.20
2020,10,13,11,26,18.70
2020,10,13,11,27,18.20
2020,10,13,11,28,13.30
2020,10,13,11,29,14.20
2020,10,13,11,30,15.20
2020,10,13,11,31,11.10
2020,10,13,11,32,9.20
2020,10,13,11,33,11.50
2020,10,13,11,34,17.60
2020,10,13,11,35,15.20
2020,10,13,11,36,20.50
2020,10,13,11,37,7.00
2020,10,13,11,38,11.50
2020,10,13,11,39,10.60
2020,10,13,11,40,21.30
2020,10,13,11,41,14.20
2020,10,13,11,42,5.80
2020,10,13,11,43,7.00
2020,10,13,11,44,15.50
2020,10,13,11,45,21.00
2020,10,13,11,46,15.10
2020,10,13,11,47,11.10
2020,10,13,11,48,19.20
2020,10,13,11,49,10.50
2020,10,13,11,50,11.60
2020,10,13,11,51,29.60
2020,10,13,11,52,20.80
2020,10,13,11,53,17.40
2020,10,13,11,54,24.90
2020,10,13,11,55,13.70
2020,10,13,11,56,14.70
2020,10,13,11,57,28.20
2020,10,13,11,58,27.00
2020,10,13,11,59,26.90
2020,10,13,12,00,25.70
2020,10,13,12,01,21.50
2020,10,13,12,02,26.10
2020,10,13,12,03,18.80
2020,10,13,12,04,20.70
2020,10,13,12,05,42.30
2020,10,13,12,06,22.90
2020,10,13,12,07,23.70
2020,10,13,12,08,17.90
2020,10,13,12,09,22.50
2020,10,13,12,10,21.10
2020,10,13,12,11,17.30
2020,10,13,12,12,20.20
2020,10,13,12,13,19.00
2020,10,13,12,14,32.30
2020,10,13,12,15,14.20
2020,10,13,12,16,18.10
2020,10,13,12,17,23.20
2020,10,13,12,18,23.00
2020,10,13,12,19,28.70
2020,10,13,12,20,29.10
2020,10,13,12,21,19.50
2020,10,13,12,22,14.20
2020,10,13,12,23,15.20
2020,10,13,12,24,22.60
2020,10,13,12,25,19.60
2020,10,13,12,26,19.10
2020,10,13,12,27,24.70
2020,10,13,12,28,12.10
2020,10,13,12,29,32.00
2020,10,13,12,30,23.80
2020,10,13,12,31,14.90
2020,10,13,12,32,14.80
2020,10,13,12,33,13.30
2020,10,13,12,34,19.60
2020,10,13,12,35,13.10
2020,10,13,12,36,11.60
2020,10,13,12,37,11.80
2020,10,13,12,38,19.70
2020,10,13,12,39,28.50
2020,10,13,12,40,24.80
2020,10,13,12,41,17.60
2020,10,13,12,42,17.40
2020,10,13,12,43,9.70
2020,10,13,12,44,20.80
2020,10,13,12,45,13.40
2020,10,13,12,46,9.40
2020,10,13,12,47,19.90
2020,10,13,12,48,17.40
2020,10,13,12,49,5.80
2020,10,13,12,50,9.20
2020,10,13,12,51,18.60
2020,10,13,12,52,15.00
2020,10,13,12,53,9.60
2020,10,13,12,54,7.40
2020,10,13,12,55,2.80
2020,10,13,12,56,3.40
2020,10,13,12,57,9.30
2020,10,13,12,58,9.30
2020,10,13,12,59,0.80
2020,10,13,13,00,4.50
2020,10,13,13,01,2.00
2020,10,13,13,02,1.00
2020,10,13,13,03,5.40
2020,10,13,13,04,4.20
2020,10,13,13,05,5.00
2020,10,13,13,06,1.20
2020,10,13,13,07,4.30
2020,10,13,13,08,12.60
2020,10,13,13,09,19.50
2020,10,13,13,10,11.90
2020,10,13,13,11,18.50
2020,10,13,13,12,12.80
2020,10,13,13,13,17.30
2020,10,13,13,14,9.30
2020,10,13,13,15,9.70
2020,10,13,13,16,19.50
2020,10,13,13,17,14.10
2020,10,13,13,18,25.80
2020,10,13,13,19,25.30
2020,10,13,13,20,23.70
2020,10,13,13,21,27.40
2020,10,13,13,22,20.30
2020,10,13,13,23,8.90
2020,10,13,13,24,21.30
2020,10,13,13,25,9.20
2020,10,13,13,26,9.60
2020,10,13,13,27,24.00
2020,10,13,13,28,28.50
2020,10,13,13,29,13.90
2020,10,13,13,30,10.40
2020,10,13,13,31,18.50
2020,10,13,13,32,24.60
2020,10,13,13,33,19.10
2020,10,13,13,34,7.40
2020,10,13,13,35,17.90
2020,10,13,13,36,15.40
2020,10,13,13,37,7.20
2020,10,13,13,38,5.60
2020,10,13,13,39,13.70
2020,10,13,13,40,5.20
2020,10,13,13,41,6.90
2020,10,13,13,42,4.80
2020,10,13,13,43,14.10
2020,10,13,13,44,14.90
2020,10,13,13,45,11.60
2020,10,13,13,46,7.20
2020,10,13,13,47,2.70
2020,10,13,13,48,20.70
2020,10,13,13,49,19.10
2020,10,13,13,50,10.30
2020,10,13,13,51,13.10
2020,10,13,13,52,19.20
2020,10,13,13,53,23.50
2020,10,13,13,54,21.60
2020,10,13,13,55,14.10
2020,10,13,13,56,20.90
2020,10,13,13,57,24.50
2020,10,13,13,58,26.20
2020,10,13,13,59,26.30
2020,10,13,14,00,20.50
2020,10,13,14,01,13.30
2020,10,13,14,02,14.30
2020,10,13,14,03,10.20
2020,10,13,14,04,8.30
2020,10,13,14,05,17.50
2020,10,13,14,06,18.40
2020,10,13,14,07,13.10
2020,10,13,14,08,13.60
2020,10,13,14,09,16.50
2020,10,13,14,10,11.30
2020,10,13,14,11,16.00
2020,10,13,14,12,10.20
2020,10,13,14,13,13.40
2020,10,13,14,14,10.20
2020,10,13,14,15,8.10
2020,10,13,14,16,9.40
2020,10,13,14,17,8.60
2020,10,13,14,18,16.30
2020,10,13,14,19,13.50
2020,10,13,14,20,7.30
2020,10,13,14,21,14.40
2020,10,13,14,22,12.60
2020,10,13,14,23,17.80
2020,10,13,14,24,4.40
2020,10,13,14,25,5.20
2020,10,13,14,26,12.30
2020,10,13,14,27,6.90
2020,10,13,14,28,16.50
2020,10,13,14,29,24.50
2020,10,13,14,30,8.50
2020,10,13,14,31,10.80
2020,10,13,14,32,27.30
2020,10,13,14,33,10.40
2020,10,13,14,34,9.70
2020,10,13,14,35,21.30
2020,10,13,14,36,17.80
2020,10,13,14,37,22.50
2020,10,13,14,38,21.90
2020,10,13,14,39,22.30
2020,10,13,14,40,12.90
2020,10,13,14,41,23.50
2020,10,13,14,42,21.50
2020,10,13,14,43,16.10
2020,10,13,14,44,23.20
2020,10,13,14,45,33.00
2020,10,13,14,46,20.10
2020,10,13,14,47,17.40
2020,10,13,14,48,26.50
2020,10,13,14,49,26.50
2020,10,13,14,50,7.40
2020,10,13,14,51,13.90
2020,10,13,14,52,15.70
2020,10,13,14,53,21.20
2020,10,13,14,54,27.00
2020,10,13,14,55,18.20
2020,10,13,14,56,5.10
2020,10,13,14,57,13.80
2020,10,13,14,58,7.80
2020,10,13,14,59,9.80
2020,10,13,15,00,9.70
2020,10,13,15,01,25.30
2020,10,13,15,02,22.40
2020,10,13,15,03,13.00
2020,10,13,15,04,13.50
2020,10,13,15,05,7.00
2020,10,13,15,06,10.00
2020,10,13,15,07,8.40
2020,10,13,15,08,6.70
2020,10,13,15,09,9.70
2020,10,13,15,10,20.60
2020,10,13,15,11,9.20
2020,10,13,15,12,7.30
2020,10,13,15,13,18.70
2020,10,13,15,14,20.20
2020,10,13,15,15,17.60
2020,10,13,15,16,18.00
2020,10,13,15,17,11.40
2020,10,13,15,18,9.40
2020,10,13,15,19,24.00
2020,10,13,15,20,13.80
2020,10,13,15,21,11.30
2020,10,13,15,22,8.40
2020,10,13,15,23,9.20
2020,10,13,15,24,6.60
2020,10,13,15,25,9.40
2020,10,13,15,26,12.30
2020,10,13,15,27,9.10
2020,10,13,15,28,8.30
2020,10,13,15,29,20.70
2020,10,13,15,30,11.10
2020,10,13,15,31,19.00
2020,10,13,15,32,21.70
2020,10,13,15,33,10.80
2020,10,13,15,34,16.20
2020,10,13,15,35,22.40
2020,10,13,15,36,20.70
2020,10,13,15,37,6.80
2020,10,13,15,38,13.00
2020,10,13,15,39,14.20
2020,10,13,15,40,19.40
2020,10,13,15,41,18.10
2020,10,13,15,42,17.90
2020,10,13,15,43,24.80
2020,10,13,15,44,19.70
2020,10,13,15,45,9.90
2020,10,13,15,46,10.20
2020,10,13,15,47,14.60
2020,10,13,15,48,9.20
2020,10,13,15,49,12.60
2020,10,13,15,50,3.70
2020,10,13,15,51,9.10
2020,10,13,15,52,18.60
2020,10,13,15,53,12.10
2020,10,13,15,54,5.90
2020,10,13,15,55,14.00
2020,10,13,15,56,11.20
2020,10,13,15,57,9.70
2020,10,13,15,58,7.80
2020,10,13,15,59,7.70
2020,10,13,16,00,16.10
2020,10,13,16,01,7.30
2020,10,13,16,02,9.70
2020,10,13,16,03,14.80
2020,10,13,16,04,6.70
2020,10,13,16,05,16.90
2020,10,13,16,06,6.20
2020,10,13,16,07,11.00
2020,10,13,16,08,10.30
2020,10,13,16,09,8.90
2020,10,13,16,10,11.60
2020,10,13,16,11,12.50
2020,10,13,16,12,10.50
2020,10,13,16,13,17.40
2020,10,13,16,14,14.00
2020,10,13,16,15,7.50
2020,10,13,16,16,8.40
2020,10,13,16,17,12.40
2020,10,13,16,18,14.60
2020,10,13,16,19,8.90
2020,10,13,16,20,4.20
2020,10,13,16,21,5.90
2020,10,13,16,22,4.10
2020,10,13,16,23,14.60
2020,10,13,16,24,12.10
2020,10,13,16,25,5.70
2020,10,13,16,26,9.30
2020,10,13,16,27,6.30
2020,10,13,16,28,1.00
2020,10,13,16,29,6.90
2020,10,13,16,30,10.80
2020,10,13,16,31,14.70
2020,10,13,16,32,18.00
2020,10,13,16,33,7.10
2020,10,13,16,34,14.60
2020,10,13,16,35,13.40
2020,10,13,16,36,8.60
2020,10,13,16,37,11.30
2020,10,13,16,38,11.40
2020,10,13,16,39,5.20
2020,10,13,16,40,11.90
2020,10,13,16,41,17.20
2020,10,13,16,42,14.30
2020,10,13,16,43,9.00
2020,10,13,16,44,10.30
2020,10,13,16,45,9.50
2020,10,13,16,46,14.00
2020,10,13,16,47,6.00
2020,10,13,16,48,8.00
2020,10,13,16,49,9.50
2020,10,13,16,50,10.90
2020,10,13,16,51,4.30
2020,10,13,16,52,5.90
2020,10,13,16,53,6.80
2020,10,13,16,54,9.70
2020,10,13,16,55,3.80
2020,10,13,16,56,1.30
2020,10,13,16,57,6.40
2020,10,13,16,58,8.90
2020,10,13,16,59,6.70
2020,10,13,17,00,14.90
2020,10,13,17,01,11.40
2020,10,13,17,02,5.20
2020,10,13,17,03,3.40
2020,10,13,17,04,12.60
2020,10,13,17,05,11.30
2020,10,13,17,06,13.30
2020,10,13,17,07,20.20
2020,10,13,17,08,13.70
2020,10,13,17,09,13.00
2020,10,13,17,10,8.80
2020,10,13,17,11,7.90
2020,10,13,17,12,5.90
2020,10,13,17,13,6.30
2020,10,13,17,14,9.40
2020,10,13,17,15,5.80
2020,10,13,17,16,14.00
2020,10,13,17,17,14.50
2020,10,13,17,18,11.70
2020,10,13,17,19,13.60
2020,10,13,17,20,7.40
2020,10,13,17,21,2.60
2020,10,13,17,22,9.00
2020,10,13,17,23,5.80
2020,10,13,17,24,7.80
2020,10,13,17,25,23.30
2020,10,13,17,26,19.20
2020,10,13,17,27,14.20
2020,10,13,17,28,17.50
2020,10,13,17,29,9.60
2020,10,13,17,30,9.00
2020,10,13,17,31,11.40
2020,10,13,17,32,10.10
2020,10,13,17,33,7.50
2020,10,13,17,34,15.40
2020,10,13,17,35,12.50
2020,10,13,17,36,8.00
2020,10,13,17,37,6.60
2020,10,13,17,38,16.50
2020,10,13,17,39,7.90
2020,10,13,17,40,6.00
2020,10,13,17,41,8.20
2020,10,13,17,42,12.10
2020,10,13,17,43,7.50
2020,10,13,17,44,7.70
2020,10,13,17,45,6.20
2020,10,13,17,46,10.30
2020,10,13,17,47,18.00
2020,10,13,17,48,6.00